Погода в Яковлевском

Россия / Костромская область     57°49′12″N   40°49′48″E
темп.,
°C
ветер,
м/с
пор.,
м/с
влажн.,
%
обл.,
%
осадки,
мм/ч
давл.,
гПа
погр.,
м
24 июня, чт
чт2400:00+22юз228046 0.0 102017
03:00+21юз228356 0.0 102014
06:00+23юз248046 0.0 1020118
09:00+28зюз346299 0.0 1019441
12:00+31зюз345176 0.0 10191039
15:00+32зюз454689 0.0 10181652
18:00+31ююз355749 0.0 1017320
21:00+25зюз23753 0.0 101627
25 июня, пт
пт2500:00+23зюз367896 0.0 101696
03:00+20ссз2284100 0.0 101627
06:00+22зюз117895 0.0 101682
09:00+25зсз347141 0.0 1016411
12:00+29з3556100 0.0 1016914
15:00+30з3555100 0.0 10151191
18:00+30зюз13565 0.0 10131257
21:00+24зюз348114 0.9 101476
26 июня, сб
сб2600:00+19зюз369563 4.9 1014145
03:00+18з1194100 5.1 101311
06:00+21зюз249092 0.0 1014152
09:00+25ююз23665 0.0 1013473
12:00+29юз335746 0.0 1013942
15:00+30юз34535 0.0 10121516
18:00+30юз35646 0.1 1010707
21:00+24сз228532 1.4 101122
27 июня, вс
вс2700:00+21вюв229181 0.1 101117
03:00+21зюз11905 0.1 101211
06:00+23зюз128612 0.5 101296
09:00+27зюз126833 0.5 1012497
12:00+30юз235683 2.6 10121242
15:00+31зюз235061 2.6 10121736
18:00+31юз125828 0.0 10111301
21:00+23ю358246 0.3 101196
28 июня, пн
пн2800:00+20ю369598 2.9 1012104
03:00+20ююз239549 2.9 101262
06:00+21ю238939 2.2 1012115
09:00+26ююз226931 2.2 1011489
12:00+30юз235798 0.0 10111170
15:00+31ююз345278 0.0 10111920
18:00+30юз356116 0.0 1010479
21:00+20сз489445 3.4 1011189